www.pogodaiklimat.ru

Погода и климат >> Архив погоды >> Россия >> Калужская область >> Сухиничи


АРХИВ ПОГОДЫ в Сухиничах

Время (UTC), дата Ветер
(напр.,м/с)
 
Видим.   Явления Облачность Т
(С)
Тd
(С)
f
(%)
Тe
(С)
Тes
(С)
Комфортность P
(гПа)
Po
(гПа)
Тmin
(С)
Tmax
(С)
R
(мм)
R24
(мм)
S
(см)
09 13.08 Ю 1 40 км 9/0
[Ac trans Ci sp]
+22.9 +14.9 61 +27 +37 душно 1014.9 987.6
12 13.08 ЮЗ 1 28 км в посл. час ливневой дождь 9/8 600 м
[Cb cap Ac As]
+21.6 +16.2 71 +25 +27 комфорт 1013.8 986.4
15 13.08 Ю 2 22 км {ливн. осадки} 9/6 600 м
[Cb cap Ac cuf Ci ing]
+18.8 +16.4 86 +21 +21 комфорт 1011.0 983.5 2
18 13.08 ЮЗ 1 20 км 9/8 600 м
[Cb cap Ac As]
+18.8 +15.8 83 +21 +21 комфорт 1010.6 983.1 +23.1 2
21 13.08 ЮЗ 1 8000 м дымка 3/0
[Ci fib]
+16.0 +15.2 95 +17 +17 1010.9 983.0
00 14.08 З 1 8000 м дымка 8/0 2000 м
[Ac trans Ci fib]
+17.0 +16.2 95 +18 +18 1011.6 983.9
03 14.08 ЮЗ 1 8000 м дымка 8/0
[Ci fib]
+15.7 +14.6 93 +16 +17 1013.5 985.6 +15.5
06 14.08 З 1 15 км 9/9 600 м
[Sc]
+18.6 +16.2 86 +21 +21 комфорт 1014.0 986.4 +15.5
09 14.08 ЮЗ 1 30 км 9/8 600 м
[Cu med, cong Ci fib]
+22.5 +14.6 61 +26 +29 жарко 1014.2 986.9
12 14.08 ЮЗ 1 40 км 8/3 1000 м
[Cu hum Ac trans Ci fib]
+24.2 +14.3 54 +27 +32 жарко 1013.7 986.5
15 14.08 ЮВ 1 40 км 9/0
[Ac trans Ci fib]
+24.3 +15.1 56 +27 +28 жарко 1012.3 985.2
18 14.08 В 3 25 км 9/3 600 м
[Sc diur, vesp Ci]
+20.3 +15.3 73 +23 +23 комфорт 1010.8 983.5 +24.9
21 14.08 ЮВ 4 20 км 9/3 600 м
[Sc diur, vesp Ci sp]
+19.3 +14.8 75 +21 +21 комфорт 1009.2 981.8
00 15.08 Ю 3 20 км 3/3 600 м
[Sc Ci fib]
+19.9 +15.6 76 +22 +22 комфорт 1008.2 980.8
03 15.08 ЮЗ 1 22 км 3/0 2000 м
[Ac cast]
+20.1 +15.7 76 +24 +24 комфорт 1007.3 980.1 +19.2
06 15.08 З 2 27 км 8/8 600 м
[Sc]
+20.8 +16.4 76 +25 +26 комфорт 1009.1 981.8 +19.2
09 15.08 СЗ 3 28 км 9/9 600 м
[Sc]
+19.8 +13.5 67 +22 +23 комфорт 1011.3 983.8
12 15.08 С 3 40 км 9/9 600 м
[Sc]
+21.0 +12.7 59 +24 +25 комфорт 1012.0 984.5
15 15.08 С 3 30 км 8/0
[Ci]
+19.3 +12.0 63 +21 +22 комфорт 1012.5 984.9
18 15.08 СВ 2 25 км 8/0
[Ci]
+16.0 +11.6 75 +16 +16 1013.7 985.9 +22.2
21 15.08 С 2 20 км 9/0
[Ac As]
+14.6 +11.8 83 +14 +14 1013.7 985.6
00 16.08 СВ 3 16 км 8/0
[Ac As]
+14.4 +12.1 86 +13 +13 1013.8 985.7
03 16.08 СВ 3 12 км в посл. час ливневой дождь 9/9 600 м
[Cb cap]
+13.9 +11.9 88 +13 +13 1012.6 984.6 +13.9 0.4
06 16.08 СВ 3 13 км 9/9 600 м
[Sc]
+14.7 +12.4 86 +14 +14 1011.7 983.8 +13.9 0.4
09 16.08 СВ 3 11 км в посл. час ливневой дождь 9/9 600 м
[Cb cap]
+14.9 +13.2 90 +14 +15 1012.1 984.1
12 16.08 СВ 4 14 км {ливн. осадки} 9/9 600 м
[Sc]
+15.5 +13.2 86 +15 +15 1012.6 984.6
15 16.08 СВ 4 13 км 9/9 600 м
[Cb cap]
+15.3 +13.1 87 +14 +14 1011.7 983.9 0.4
18 16.08 СВ 3 15 км 9/9 600 м
[Cb cap]
+14.7 +12.2 85 +14 +14 1012.2 984.2 +15.6 0.4
21 16.08 СВ 3 12 км 9/9 600 м
[Cb cap]
+14.3 +12.4 88 +13 +13 1012.5 984.4
00 17.08 СВ 3 10 км в посл. час ливневой дождь 9/9 600 м
[Cb cap]
+13.3 +11.9 91 +12 +12 1012.2 984.0
03 17.08 СВ 3 8000 м слаб. морось 10/10 300 м
[Frnb]
+12.8 +11.5 92 +11 +11 1011.4 983.3 +12.8 0.0
06 17.08 СВ 2 8000 м дымка 10/10 300 м
[St]
+12.6 +11.5 93 +12 +12 1011.7 983.6 +12.5 0.3
09 17.08 С 2 8000 м дымка 10/10 300 м
[St]
+14.0 +13.0 94 +13 +13 1011.2 983.2
12 17.08 СВ 2 8000 м слаб. морось 10/10 300 м
[Frnb]
+15.1 +14.1 94 +15 +15 1010.9 982.9
15 17.08 С 2 6000 м слаб. дождь {морось} 10/10 300 м
[Frnb Ns]
+14.9 +14.1 95 +15 +15 1010.0 982.1 1
18 17.08 С 2 5000 м слаб. дождь 10/10 300 м
[Frnb Ns]
+14.8 +13.9 94 +14 +14 1009.0 981.2 +15.1 12
21 17.08 СВ 2 5000 м слаб. дождь 10/10 300 м
[Frnb Ns]
+15.3 +14.6 96 +15 +15 1007.5 979.7
00 18.08 СВ 2 5000 м слаб. дождь 10/10 300 м
[Frnb Ns]
+15.1 +14.3 95 +15 +15 1007.2 979.4
03 18.08 штиль 0 5000 м слаб. дождь 10/10 300 м
[Frnb Ns]
+14.6 +13.8 95 +14 +14 1006.9 979.1 +14.6 29
06 18.08 штиль 0 5000 м в посл. час морось {дождь} 10/10 300 м
[St]
+15.1 +14.1 94 +15 +15 1007.1 979.4 +14.6 19
09 18.08 ЮЗ 2 10 км слаб. дождь {морось} 10/10 300 м
[Frnb Ns]
+15.8 +14.6 93 +16 +16 1008.3 980.5
12 18.08 ЮЗ 2 12 км в посл. час ливневой дождь {морось} 9/9 600 м
[Cb cap]
+15.6 +14.1 91 +15 +16 1010.3 982.5
15 18.08 ЮЗ 1 10 км в посл. час ливневой дождь 9/9 600 м
[Cb cap]
+15.4 +14.3 93 +16 +16 1011.5 983.6 1
18 18.08 З 1 7000 м дымка {ливн. осадки} 9/9 600 м
[Sc diur, vesp]
+15.0 +14.0 94 +15 +15 1012.5 984.6 +16.2 1
21 18.08 З 2 7000 м в посл. час ливневой дождь 9/9 600 м
[Sc diur, vesp]
+15.3 +14.5 95 +15 +15 1013.3 985.3
00 19.08 З 1 6000 м дымка {ливн. осадки} 10/10 300 м
[St]
+15.2 +14.4 95 +16 +16 1015.0 987.0
03 19.08 З 1 7000 м дымка 9/9 300 м
[St]
+14.5 +13.5 94 +15 +15 1016.1 988.1 +14.5 1
06 19.08 З 1 18 км 8/8 600 м
[Sc]
+16.8 +14.4 86 +18 +19 1017.5 989.7 +14.5 0.7
09 19.08 З 2 30 км 6/4 600 м
[Cu med, cong Ci fib]
+20.9 +14.1 65 +24 +31 комфорт 1018.1 990.5
12 19.08 СЗ 2 40 км 1/1 1000 м
[Cu hum]
+23.4 +12.6 51 +26 +34 жарко 1018.3 990.9
15 19.08 З 1 40 км 1/0
[Ci fib]
+23.8 +12.7 50 +26 +27 жарко 1019.0 991.6
18 19.08 ЮЗ 1 16 км ясно +16.3 +13.6 84 +17 +17 1020.6 992.6 +24.1
21 19.08 штиль 0 18 км ясно +15.4 +12.7 84 +15 +15 1021.3 993.1
00 20.08 Ю 1 16 км ясно +15.0 +12.5 85 +16 +16 1021.3 993.1
03 20.08 ЮЗ 1 10 км ясно +13.1 +12.0 93 +13 +13 1022.5 994.1 +12.8
06 20.08 ЮЗ 1 30 км 8/0 2000 м
[Ac trans Cc]
+21.0 +13.4 62 +25 +29 комфорт 1022.9 995.3 +12.8

 

Местоположение метеостанции Сухиничи (Калужская область, Россия): широта 54.10 долгота 35.35 высота над уровнем моря 238 м.

В архиве по умолчанию представлена погода в Сухиничах за последнюю неделю. Архивные данные за месяц целиком и за предыдущие месяцы, начиная с января 2011 года, Вы можете получить, выбрав интересующий диапазон дат из раскрывающегося списка и нажав кнопку "Ввод!".


*Определитесь, кто Вы:
робот инопланетянин человек

Внимание! Время в таблицах - всемирное. Для получения местного времени необходимо прибавить поправку, которая равна 3 ч.

Смотрите также архив погоды в соседних городах и на ближайших метеорологических станциях:

Погода в Мосальске (Калужская область, Россия) (49 км)
Погода в Жиздре (Калужская область, Россия) (56 км)
Погода в Суворове (Тульская область, Россия) (77 км)
Погода в Калуге (Калужская область, Россия) (82 км)
Погода в Болхове (Орловская область, Россия) (87 км)
Погода в Спас-Деменске (Калужская область, Россия) (93 км)
Погода в Карачеве (Брянская область, Россия) (110 км)
Погода в Брянске (Брянская область, Россия) (116 км)
Погода в Мценске (Орловская область, Россия) (120 км)
Погода в Алексине (Тульская область, Россия) (121 км)

Пояснения к столбцам:

Ветер - указаны скорость ветра в м/с - средняя за 10 мин, порывы в срок и между сроками (в фигурных скобках) и направление, откуда дует ветер: С - северный, СВ - северо-восточный, В - восточный, ЮВ - юго-восточный, Ю - южный, ЮЗ - юго-западный, З - западный, СЗ - северо-западный.
Видимость - горизонтальная дальность видимости в метрах или километрах. При видимости от 1 до 10 км при отсутствии осадков обычно наблюдается дымка, при ухудшении видимости до 1 км и менее - туман. В сухую погоду видимость может ухудшаться дымом, пылью или мглою.
Явления - указаны атмосферные явления, наблюдавшиеся в срок или в последний час перед сроком; фигурными скобками обозначены явления, наблюдавшиеся между сроками (за 1-3 часа до срока); квадратными скобками обозначены град или гололедные отложения с указанием их диаметра в мм.
Облачность - указаны через наклонную черту общая и нижняя облачность в баллах и высота нижней границы облаков в метрах; квадратными скобками обозначены формы облаков: Ci - перистые, Cs - перисто-слоистые, Cc - перисто-кучевые, Ac - высококучевые, As - высокослоистые, Sc - слоисто-кучевые, Ns - слоисто-дождевые, Cu - кучевые, Cb - кучево-дождевые. Подробнее классификацию облаков см. в Атласе облаков (PDF).
T - Температура воздуха - температура, измеренная на высоте 2 м над землей.
Td - Температура точки росы - температура, при понижении до которой содержащийся в воздухе водяной пар достигнет насыщения.
f - Относительная влажность воздуха - влажноcть воздуха, измеренная на высоте 2 м над землей.
Te - Эффективная температура - температура, которую ощущает одетый по сезону человек в тени. Характеристика душности погоды. При расчете учитывается влияние влажности воздуха и скорости ветра на теплоощущения человека.
Tes - Эффективная температура на солнце - температура, которую ощущает человек, с поправкой на солнечный нагрев. Характеристика знойности погоды. Зависит от высоты солнца над горизонтом, облачности и скорости ветра. Ночью, в пасмурную погоду, а также при ветре 12 м/с и более поправка равна нулю.
P - Атмосферное давление - приведенное к уровню моря атмосферное давление.
Po - Атмосферное давление - измеренное на уровне метеостанции атмосферное давление.
Tmin - Минимальная температура - минимум температуры воздуха на высоте 2 м над землей.
Tmax - Максимальная температура - максимум температуры воздуха на высоте 2 м над землей.
R - Количество осадков - Количество выпавших осадков за период времени, мм. При наведении курсора мыши на число - период времени, за который выпало указанное количество осадков.
R24 - Количество осадков - Количество выпавших осадков за 24 часа, мм.
S - Снежный покров - Высота снежного покрова, см. При наведении курсора мыши на число - состояние снежного покрова и степень покрытия местности в баллах.